Regional Weather Roundup
Issued by NWS

Home | Current Version | Previous Version | Text Only | Print | Product List | Glossary Off
Versions: 1 2 3 4 5 6 7 8 9 10 11 12 13 14 15 16 17 18 19 20 21 22 23 24 25 26 27 28 29 30 31 32 33 34 35 36 37 38 39 40 41 42 43 44 45 46 47 48 49 50

000
ASUS43 KLOT 250010
RWRIL

ILLINOIS REGIONAL WEATHER ROUNDUP
NATIONAL WEATHER SERVICE CHICAGO/ROMEOVILLE IL
700 PM CDT FRI OCT 24 2014

NOTE: "FAIR" INDICATES FEW OR NO CLOUDS BELOW 12,000 FEET WITH NO
SIGNIFICANT WEATHER AND/OR OBSTRUCTIONS TO VISIBILITY.

* THESE STATIONS ARE NOT UNDER NWS QUALITY CONTROL. THEY ALSO MAY NOT
  REPORT WEATHER SUCH AS PRECIPITATION OR FOG.

ILZ001-002-007-009-015-016-024-250100-
NORTHWEST ILLINOIS

CITY           SKY/WX    TMP DP  RH WIND       PRES   REMARKS
MOLINE         CLOUDY    66  54  65 W9        29.94R
6HR MIN TEMP:  64; 6HR MAX TEMP:  70;

STERLING*      CLOUDY    63  46  55 S3        29.94R
SAVANNA*       CLOUDY    64  49  59 CALM      29.93R
$$

ILZ003-004-008-010-011-017-018-250100-
NORTH CENTRAL ILLINOIS

CITY           SKY/WX    TMP DP  RH WIND       PRES   REMARKS
ROCKFORD       MOCLDY    57  47  69 S8        29.95S
6HR MIN TEMP:  54; 6HR MAX TEMP:  64;

FREEPORT*      CLOUDY    58  47  65 S7        29.94R
ROCHELLE*      CLOUDY    57  46  66 S5        29.94S
DE KALB*       PTCLDY    51  43  72 S8        29.95S
PERU*          MOCLDY    60  44  55 S6        29.97R
$$

ILZ005-006-012>014-019>023-250100-
NORTHEAST ILLINOIS

CITY           SKY/WX    TMP DP  RH WIND       PRES   REMARKS
CHICAGO-OHARE  MOCLDY    61  46  57 S6        29.94S
6HR MIN TEMP:  60; 6HR MAX TEMP:  67;

CHICAGO-MIDWAY MOCLDY    65  46  50 CALM      29.95S
6HR MIN TEMP:  63; 6HR MAX TEMP:  68;

AURORA         PTCLDY    55  44  66 CALM      29.95F
6HR MIN TEMP:  54; 6HR MAX TEMP:  69;

LANSING*       MOCLDY    55  46  69 CALM      29.97R
JOLIET*        PTCLDY    53  46  77 CALM      29.96S
WAUKEGAN       MOCLDY    50  48  93 CALM      29.94S FOG
6HR MIN TEMP:  50; 6HR MAX TEMP:  62;

DUPAGE AIRPORT PTCLDY    58  47  66 S5        29.94F
6HR MIN TEMP:  58; 6HR MAX TEMP:  69;

KANKAKEE*      PTCLDY    56  45  65 SW5       29.97S
WHEELING       MOCLDY    59  45  59 S3        29.96S
6HR MIN TEMP:  59; 6HR MAX TEMP:  69;

MORRIS*        PTCLDY    59  47  65 SW6       29.95S
ROMEOVILLE*    MOCLDY    57  44  62 S6        29.96S
NORTHERLY ISL    N/A     64  46  52 S6          N/A
$$

LMZ740>746-250100-
SOUTHERN LAKE MICHIGAN

STATION/POSITION SKY/WX   TEMP    WIND        PRES    VSBY  WAVE
                          AIR SEA DIR/SP/G                  HT/PER
                          (F)     (DEG/KT/KT) (MB)    (MI)  (FT/S)
SOUTHERN BUOY              54 54  160/  6/  6 1014.5F         0
WAUKEGAN HARBOR            54        CALM       N/A
HARRISON CRIB              58     160/ 10/ 13   N/A
BURNHAM HARBOR             64     190/  5/  7   N/A
CALUMET HARBOR             62     190/  2/  3 1013.3R
MICHIGAN CITY              58     110/  5/  6   N/A
$$

ILZ025>027-034>036-040-047-049-050-058-095>099-250100-
WEST-CENTRAL ILLINOIS

CITY           SKY/WX    TMP DP  RH WIND       PRES   REMARKS
QUINCY         MOCLDY    65  55  70 S9        29.94F
GALESBURG*     CLOUDY    63  54  71 SE5       29.94R
MACOMB*        PTCLDY    64  53  67 S8        29.96R
JACKSONVILLE*  PTCLDY    65  50  58 S7        29.97S
PITTSFIELD*    MOCLDY    64  52  63 S5        29.98S
$$

ILZ028>032-037-038-041>044-048-051>054-059>061-250100-
CENTRAL ILLINOIS

CITY           SKY/WX    TMP DP  RH WIND       PRES   REMARKS
PONTIAC        MOCLDY    59  50  72 SW6       29.98F
BLOOMINGTON    MOCLDY    55  52  90 S8        30.00F FOG
DECATUR        MOCLDY    58  53  84 S7        30.01S
PEORIA         MOCLDY    62  51  67 SE7       29.96F
6HR MIN TEMP:  61; 6HR MAX TEMP:  66;

LACON*         MOCLDY    58  46  65 CALM      29.95S
LINCOLN*       MOCLDY    57  52  84 S3        29.97S
SPRINGFIELD    MOCLDY    60  50  69 S7        29.98F
6HR MIN TEMP:  59; 6HR MAX TEMP:  71;

TAYLORVILLE    MOCLDY    57  52  82 SE7       30.00S
$$

ILZ033-039-045-046-055>057-062-063-250100-
EAST-CENTRAL ILLINOIS

CITY           SKY/WX    TMP DP  RH WIND       PRES   REMARKS
CHAMPAIGN      PTCLDY    55  53  93 SW7       30.01S
DANVILLE*      PTCLDY    58  51  78 SW7       29.98S
RANTOUL*       CLEAR     58  53  84 SW7       30.00S
MATTOON        PTCLDY    59  53  80 SW5       30.01F
PARIS*         PTCLDY    58  53  82 W5        30.03R
$$

ILZ079-100>102-250100-
SOUTHWEST ILLINOIS

CITY           SKY/WX    TMP DP  RH WIND       PRES   REMARKS
BELLEVILLE     PTCLDY    61  51  70 S3        30.01R
CAHOKIA*       PTCLDY    65  51  60 S5        30.01R
SPARTA*        PTCLDY    61  50  66 SE3       30.04R
$$

ILZ064>066-069>071-074>076-080>082-084>086-088>090-092>094-250100-
SOUTH-CENTRAL ILLINOIS

CITY           SKY/WX    TMP DP  RH WIND       PRES   REMARKS
CARBONDALE     PTCLDY    56  50  80 CALM      30.05R
6HR MIN TEMP:  56; 6HR MAX TEMP:  71;

CAIRO*         PTCLDY    60  53  77 CALM      30.05S HAZE
EFFINGHAM*     CLEAR     56  50  78 CALM      30.03S
MARION         PTCLDY    57  54  88 CALM      30.05S
MT. VERNON     CLEAR     57  50  77 CALM      30.05S
CENTRALIA*     PTCLDY    57  51  78 S5        30.03S
SALEM*         CLEAR     57  55  91 CALM      30.04R
METROPOLIS*    CLEAR     58  57  99 CALM      30.05S
$$

ILZ067-068-072-073-078-083-087-091-250100-
SOUTHEAST ILLINOIS

CITY           SKY/WX    TMP DP  RH WIND       PRES   REMARKS
LAWRENCEVILLE  PTCLDY    59  51  75 S5        30.03S
FLORA*         PTCLDY    56  50  79 CALM      30.04S
FAIRFIELD*     CLEAR     54  50  88 SW3       30.03S
HARRISBURG*    CLEAR     56  53  89 CALM      30.06S
ROBINSON*      FAIR      61  53  74 S3        30.04R
CARMI*         CLEAR     58  52  80 W3        30.04R
$$

ABBREVIATIONS USED IN REMARKS
   TC - TEMPERATURE IN CELSIUS
  WCI - WIND CHILL INDEX
   HX - HEAT INDEX
  VSB - VISIBILITY
$$




USA.gov is the U.S. government's official web portal to all federal, state and local government web resources and services.